Location: Chaumontel
(49.1247°N, 2.4324°E)
Time: 18:21:10
(UTC+00:00)

Envisat - Pass Details

Date: 18 May 2026
Orbit: 761 x 763 km, 98.4° (Epoch: 10 June)

Event Time Altitude Azimuth Distance (km) Brightness Sun altitude
Rises 01:57:41 0° 20° (NNE) 3,236 7.9 -15.4°
Reaches altitude 10° 02:00:08 10° 27° (NNE) 2,305 6.9 -15.2°
Maximum altitude 02:04:55 41° 98° (E) 1,104 4.0 -14.8°
Drops below altitude 10° 02:09:39 10° 168° (SSE) 2,288 5.1 -14.4°
Enters shadow 02:09:43 10° 168° (SSE) 2,310 5.1 -14.3°
